User: anonymous   Login
Location: Unspecified
(33.6682°S, 0.0000°E)
Time: 23:18:20
(UTC+00:00)
Language:

Transit 2A - Orbit

View from above orbital plane
View from above orbital plane
View from above satellite
View from above satellite

Ground track
Ground track

The orbit data is extracted from the following two-line orbital elements,

1    45U 60007A   19166.52396779 -.00000056  00000-0  13245-4 0  9994
2    45  66.6949 270.4504 0261000 224.6395 133.3429 14.33640599 69962
Epoch (UTC): 15 June 2019 12:34:30
Eccentricity: 0.0261000
inclination: 66.6949°
perigee height: 593 km
apogee height: 966 km
right ascension of ascending node: 270.4504°
argument of perigee: 224.6395°
revolutions per day: 14.33640599
mean anomaly at epoch: 133.3429°
orbit number at epoch: 6996

The dashed part of the orbit path shows where the satellite is in the earth's shadow,  

DLR